TimeEST,TemperatureF,Dew PointF,Humidity,Sea Level PressureIn,VisibilityMPH,Wind Direction,Wind SpeedMPH,Gust SpeedMPH,PrecipitationIn,Events,Conditions,WindDirDegrees,DateUTC
12:29 AM,14.0,10.4,86,30.21,10.0,NW,6.9,-,N/A,,Partly Cloudy,320,2013-02-22 05:29:00
12:53 AM,15.1,10.9,84,30.32,10.0,West,8.1,-,N/A,,Partly Cloudy,280,2013-02-22 05:53:00
1:53 AM,15.1,10.9,84,30.31,10.0,NW,5.8,-,N/A,,Partly Cloudy,320,2013-02-22 06:53:00
2:53 AM,14.0,10.0,84,30.33,10.0,NW,6.9,-,N/A,,Clear,310,2013-02-22 07:53:00
3:53 AM,12.9,9.0,84,30.33,9.0,NW,4.6,-,N/A,,Clear,310,2013-02-22 08:53:00
4:53 AM,12.9,10.0,88,30.32,10.0,NNW,4.6,-,N/A,,Clear,340,2013-02-22 09:53:00
5:53 AM,12.9,9.0,84,30.35,10.0,NW,4.6,-,N/A,,Clear,310,2013-02-22 10:53:00
6:53 AM,15.1,10.9,84,30.35,10.0,Calm,Calm,-,N/A,,Clear,0,2013-02-22 11:53:00
7:53 AM,16.0,10.9,81,30.37,10.0,East,3.5,-,N/A,,Clear,80,2013-02-22 12:53:00
8:53 AM,23.0,16.0,74,30.36,10.0,East,9.2,-,N/A,,Clear,100,2013-02-22 13:53:00
9:53 AM,24.1,16.0,71,30.35,10.0,ESE,9.2,-,N/A,,Clear,110,2013-02-22 14:53:00
10:53 AM,25.0,17.1,72,30.36,10.0,ESE,8.1,-,N/A,,Clear,120,2013-02-22 15:53:00
12:53 PM,27.0,18.0,69,30.31,10.0,ESE,12.7,-,N/A,,Partly Cloudy,120,2013-02-22 17:53:00
1:53 PM,28.0,19.0,69,30.28,10.0,SE,13.8,-,N/A,,Overcast,140,2013-02-22 18:53:00
2:53 PM,28.0,19.0,69,30.28,10.0,SE,9.2,-,N/A,,Overcast,140,2013-02-22 19:53:00
3:53 PM,28.9,19.9,69,30.28,10.0,SE,12.7,-,0.00,,Overcast,130,2013-02-22 20:53:00
4:53 PM,28.0,19.9,72,30.28,10.0,SE,11.5,-,0.00,,Overcast,140,2013-02-22 21:53:00
5:53 PM,28.0,19.9,72,30.28,10.0,SE,8.1,-,N/A,,Overcast,140,2013-02-22 22:53:00
6:53 PM,28.0,19.9,72,30.28,10.0,SE,9.2,-,N/A,,Overcast,140,2013-02-22 23:53:00
7:53 PM,27.0,19.9,75,30.28,10.0,SSE,10.4,-,N/A,,Overcast,150,2013-02-23 00:53:00
8:49 PM,26.6,21.2,80,30.18,2.5,SE,10.4,-,0.00,Snow,Light Snow,140,2013-02-23 01:49:00
8:53 PM,27.0,21.0,78,30.26,2.0,SE,9.2,-,0.00,Snow,Light Snow,140,2013-02-23 01:53:00
8:57 PM,26.6,21.2,80,30.17,3.0,SE,9.2,-,0.00,Snow,Light Snow,140,2013-02-23 01:57:00
9:10 PM,26.6,21.2,80,30.17,3.0,SSE,11.5,-,0.00,Snow,Light Snow,150,2013-02-23 02:10:00
9:24 PM,26.6,21.2,80,30.17,9.0,SE,10.4,-,0.00,,Overcast,140,2013-02-23 02:24:00
9:53 PM,26.1,23.0,88,30.25,10.0,SE,9.2,-,0.00,,Overcast,130,2013-02-23 02:53:00
10:00 PM,26.6,23.0,86,30.17,10.0,SE,10.4,-,N/A,,Overcast,140,2013-02-23 03:00:00
10:53 PM,27.0,23.0,85,30.24,10.0,SE,11.5,-,N/A,,Overcast,140,2013-02-23 03:53:00
11:12 PM,26.6,24.8,93,30.15,10.0,SSE,8.1,-,N/A,,Overcast,150,2013-02-23 04:12:00
11:53 PM,27.0,25.0,92,30.22,9.0,SSE,9.2,-,N/A,,Overcast,150,2013-02-23 04:53:00